| time (UTC) | temp F | wind direction | speed MPH | gust MPH | rain 1hr in | rain 24hr in | rain mn in | humidity % | barometer mb |
| 20260506093038 | 57 | 5 | 0.0 | 0.0 | 0.00 | 0.00 | 0.00 | 40 | 1010.7 |
| 20260506092536 | 56 | 27 | 0.0 | 1.0 | 0.00 | 0.00 | 0.00 | 40 | 1010.9 |
| 20260506092033 | 56 | 44 | 2.0 | 3.0 | 0.00 | 0.00 | 0.00 | 39 | 1011.2 |
| 20260506091531 | 56 | 16 | 0.0 | 1.0 | 0.00 | 0.00 | 0.00 | 40 | 1010.9 |
| 20260506091028 | 56 | 301 | 1.0 | 2.0 | 0.00 | 0.00 | 0.00 | 41 | 1011.1 |
| 20260506090526 | 56 | 298 | 1.0 | 1.0 | 0.00 | 0.00 | 0.00 | 41 | 1011.1 |
| 20260506090022 | 56 | 28 | 0.0 | 1.0 | 0.00 | 0.00 | 0.00 | 41 | 1011.1 |
| 20260506085519 | 56 | 304 | 1.0 | 1.0 | 0.00 | 0.00 | 0.00 | 41 | 1011.2 |
| 20260506085015 | 56 | 345 | 0.0 | 0.0 | 0.00 | 0.00 | 0.00 | 43 | 1011.3 |
| 20260506084512 | 55 | 44 | 1.0 | 2.0 | 0.00 | 0.00 | 0.00 | 38 | 1011.3 |
| 20260506084008 | 56 | 3 | 0.0 | 1.0 | 0.00 | 0.00 | 0.00 | 38 | 1011.5 |
| 20260506083506 | 56 | 73 | 1.0 | 2.0 | 0.00 | 0.00 | 0.00 | 42 | 1011.4 |
| 20260506083003 | 55 | 0 | 1.0 | 1.0 | 0.00 | 0.00 | 0.00 | 40 | 1011.3 |
| 20260506082500 | 55 | 73 | 0.0 | 1.0 | 0.00 | 0.00 | 0.00 | 41 | 1011.1 |
| 20260506081955 | 54 | 33 | 3.0 | 3.0 | 0.00 | 0.00 | 0.00 | 42 | 1011.5 |
| 20260506081454 | 55 | 22 | 2.0 | 2.0 | 0.00 | 0.00 | 0.00 | 40 | 1011.4 |
| 20260506080951 | 54 | 3 | 0.0 | 0.0 | 0.00 | 0.00 | 0.00 | 43 | 1011.4 |
| 20260506080448 | 55 | 41 | 0.0 | 0.0 | 0.00 | 0.00 | 0.00 | 43 | 1011.4 |
| 20260506073431 | 54 | 344 | 0.0 | 0.0 | 0.00 | 0.00 | 0.00 | 45 | 1011.4 |
| 20260506072929 | 53 | 359 | 2.0 | 2.0 | 0.00 | 0.00 | 0.00 | 46 | 1011.6 |
| 20260506072426 | 53 | 358 | 0.0 | 1.0 | 0.00 | 0.00 | 0.00 | 46 | 1011.6 |
| 20260506071924 | 53 | 97 | 2.0 | 5.0 | 0.00 | 0.00 | 0.00 | 46 | 1011.4 |
| 20260506071422 | 53 | 1 | 0.0 | 1.0 | 0.00 | 0.00 | 0.00 | 47 | 1011.4 |
| 20260506070918 | 53 | 313 | 0.0 | 0.0 | 0.00 | 0.00 | 0.00 | 47 | 1011.4 |
| 20260506070415 | 52 | 89 | 1.0 | 1.0 | 0.00 | 0.00 | 0.00 | 50 | 1011.7 |
| 20260506062352 | 52 | 60 | 0.0 | 1.0 | 0.00 | 0.00 | 0.00 | 57 | 1011.3 |
| 20260506061848 | 52 | 251 | 0.0 | 0.0 | 0.00 | 0.00 | 0.00 | 56 | 1011.3 |
| 20260506061345 | 51 | 342 | 0.0 | 0.0 | 0.00 | 0.00 | 0.00 | 58 | 1011.6 |
| 20260506060843 | 51 | 359 | 1.0 | 2.0 | 0.00 | 0.00 | 0.00 | 56 | 1011.4 |
| 20260506060341 | 50 | 27 | 1.0 | 2.0 | 0.00 | 0.00 | 0.00 | 58 | 1011.3 |
| 20260506051313 | 50 | 348 | 0.0 | 0.0 | 0.00 | 0.00 | 0.00 | 68 | 1011.4 |
| 20260506050810 | 49 | 357 | 0.0 | 0.0 | 0.00 | 0.00 | 0.00 | 71 | 1011.2 |
| 20260506050308 | 50 | 7 | 0.0 | 0.0 | 0.00 | 0.00 | 0.00 | 70 | 1011.2 |
| 20260506044758 | 49 | 342 | 0.0 | 0.0 | 0.00 | 0.00 | 0.00 | 73 | 1011.5 |
| 20260506044256 | 50 | 327 | 0.0 | 0.0 | 0.00 | 0.00 | 0.00 | 72 | 1011.3 |
| 20260506043753 | 51 | 340 | 0.0 | 0.0 | 0.00 | 0.00 | 0.00 | 67 | 1011.1 |
| 20260506043250 | 50 | 354 | 0.0 | 0.0 | 0.00 | 0.00 | 0.00 | 71 | 1011.1 |
| 20260506042749 | 48 | 348 | 0.0 | 0.0 | 0.00 | 0.00 | 0.00 | 74 | 1011.1 |
| 20260506042247 | 47 | 351 | 0.0 | 0.0 | 0.00 | 0.00 | 0.00 | 75 | 1011.2 |
| 20260506041745 | 46 | 312 | 0.0 | 0.0 | 0.00 | 0.00 | 0.00 | 76 | 1011.2 |
| 20260506041242 | 45 | 295 | 0.0 | 0.0 | 0.00 | 0.00 | 0.00 | 76 | 1011.1 |
| 20260506040739 | 44 | 289 | 0.0 | 0.0 | 0.00 | 0.00 | 0.00 | 77 | 1011.1 |
| 20260506040236 | 43 | 292 | 0.0 | 0.0 | 0.00 | 0.00 | 0.00 | 79 | 1011.0 |
| 20260506035733 | 42 | 284 | 0.0 | 0.0 | 0.00 | 0.00 | 0.00 | 79 | 1011.1 |
| 20260506035230 | 41 | 284 | 0.0 | 0.0 | 0.00 | 0.00 | 0.00 | 81 | 1011.0 |
| 20260506034727 | 40 | 284 | 0.0 | 0.0 | 0.00 | 0.00 | 0.00 | 82 | 1011.1 |
| 20260506034224 | 39 | 284 | 0.0 | 0.0 | 0.00 | 0.00 | 0.00 | 83 | 1010.8 |
| 20260506033721 | 38 | 282 | 0.0 | 0.0 | 0.00 | 0.00 | 0.00 | 84 | 1011.1 |
| 20260506033218 | 38 | 281 | 0.0 | 0.0 | 0.00 | 0.00 | 0.00 | 85 | 1011.1 |
| 20260506032715 | 37 | 284 | 0.0 | 0.0 | 0.00 | 0.00 | 0.00 | 85 | 1011.0 |
| 20260506032212 | 37 | 292 | 0.0 | 0.0 | 0.00 | 0.00 | 0.00 | 85 | 1010.6 |
| 20260506031708 | 37 | 292 | 0.0 | 0.0 | 0.00 | 0.00 | 0.00 | 86 | 1010.8 |
| 20260506031206 | 37 | 292 | 0.0 | 0.0 | 0.00 | 0.00 | 0.00 | 86 | 1010.6 |
| 20260506030704 | 37 | 284 | 0.0 | 0.0 | 0.00 | 0.00 | 0.00 | 86 | 1010.6 |
| 20260506030201 | 37 | 279 | 0.0 | 0.0 | 0.00 | 0.00 | 0.00 | 86 | 1010.4 |
| 20260506025658 | 37 | 270 | 0.0 | 0.0 | 0.00 | 0.00 | 0.00 | 86 | 1010.4 |
| 20260506025154 | 37 | 267 | 0.0 | 0.0 | 0.00 | 0.00 | 0.00 | 86 | 1010.5 |
| 20260506024651 | 37 | 294 | 0.0 | 0.0 | 0.00 | 0.00 | 0.00 | 86 | 1010.5 |
| 20260506024148 | 37 | 299 | 0.0 | 0.0 | 0.00 | 0.00 | 0.00 | 86 | 1010.3 |
| 20260506023644 | 37 | 300 | 0.0 | 0.0 | 0.00 | 0.00 | 0.00 | 86 | 1010.3 |
| 20260506023141 | 37 | 299 | 0.0 | 0.0 | 0.00 | 0.00 | 0.00 | 85 | 1010.4 |
| 20260506022639 | 38 | 289 | 0.0 | 0.0 | 0.00 | 0.00 | 0.00 | 85 | 1010.3 |
| 20260506022136 | 38 | 289 | 0.0 | 0.0 | 0.00 | 0.00 | 0.00 | 85 | 1010.2 |
| 20260506021634 | 38 | 280 | 0.0 | 0.0 | 0.00 | 0.00 | 0.00 | 85 | 1010.0 |
| 20260506021131 | 38 | 279 | 0.0 | 0.0 | 0.00 | 0.00 | 0.00 | 84 | 1010.2 |
| 20260506020628 | 38 | 276 | 0.0 | 0.0 | 0.00 | 0.00 | 0.00 | 84 | 1010.1 |
| 20260506020125 | 38 | 291 | 0.0 | 1.0 | 0.00 | 0.00 | 0.00 | 84 | 1010.0 |
| 20260506015623 | 39 | 304 | 0.0 | 0.0 | 0.00 | 0.00 | 0.00 | 84 | 1010.0 |
| 20260506015119 | 39 | 309 | 0.0 | 0.0 | 0.00 | 0.00 | 0.00 | 84 | 1010.1 |
| 20260506014612 | 39 | 309 | 0.0 | 0.0 | 0.00 | 0.00 | 0.00 | 84 | 1009.9 |
| 20260506014107 | 39 | 310 | 0.0 | 0.0 | 0.00 | 0.00 | 0.00 | 84 | 1010.0 |
| 20260506013605 | 40 | 313 | 0.0 | 0.0 | 0.00 | 0.00 | 0.00 | 84 | 1010.0 |
| 20260506013102 | 40 | 313 | 0.0 | 0.0 | 0.00 | 0.00 | 0.00 | 84 | 1009.9 |
| 20260506012558 | 40 | 312 | 0.0 | 0.0 | 0.00 | 0.00 | 0.00 | 83 | 1009.8 |
| 20260506012054 | 40 | 312 | 0.0 | 0.0 | 0.00 | 0.00 | 0.00 | 82 | 1009.8 |
| 20260506011552 | 40 | 312 | 0.0 | 0.0 | 0.00 | 0.00 | 0.00 | 82 | 1009.8 |
| 20260506011043 | 41 | 312 | 0.0 | 0.0 | 0.00 | 0.00 | 0.00 | 82 | 1009.8 |
| 20260506010542 | 41 | 312 | 0.0 | 0.0 | 0.00 | 0.00 | 0.00 | 82 | 1009.6 |
| 20260506010038 | 40 | 323 | 0.0 | 0.0 | 0.00 | 0.00 | 0.00 | 82 | 1009.5 |
| 20260506005535 | 40 | 323 | 0.0 | 0.0 | 0.00 | 0.00 | 0.00 | 81 | 1009.5 |
| 20260506005031 | 41 | 323 | 0.0 | 0.0 | 0.00 | 0.00 | 0.00 | 80 | 1009.5 |
| 20260506004529 | 40 | 321 | 0.0 | 0.0 | 0.00 | 0.00 | 0.00 | 80 | 1009.3 |
| 20260506004025 | 41 | 321 | 0.0 | 0.0 | 0.00 | 0.00 | 0.00 | 79 | 1009.4 |
| 20260506003522 | 41 | 321 | 0.0 | 0.0 | 0.00 | 0.00 | 0.00 | 78 | 1009.3 |
| 20260506003018 | 41 | 321 | 0.0 | 0.0 | 0.00 | 0.00 | 0.00 | 78 | 1009.3 |
| 20260506002514 | 41 | 321 | 0.0 | 0.0 | 0.00 | 0.00 | 0.00 | 77 | 1009.2 |
| 20260506002010 | 41 | 321 | 0.0 | 0.0 | 0.00 | 0.00 | 0.00 | 77 | 1009.3 |
| 20260506001506 | 41 | 321 | 0.0 | 0.0 | 0.00 | 0.00 | 0.00 | 76 | 1009.2 |
| 20260506001004 | 42 | 320 | 0.0 | 0.0 | 0.00 | 0.00 | 0.00 | 76 | 1009.2 |
| 20260506000501 | 42 | 321 | 0.0 | 0.0 | 0.00 | 0.00 | 0.00 | 75 | 1009.3 |
| 20260505235958 | 42 | 321 | 0.0 | 0.0 | 0.00 | 0.00 | 0.00 | 75 | 1009.3 |
| 20260505235456 | 42 | 320 | 0.0 | 0.0 | 0.00 | 0.00 | 0.00 | 75 | 1009.0 |
| 20260505234953 | 42 | 320 | 0.0 | 0.0 | 0.00 | 0.00 | 0.00 | 74 | 1008.8 |
| 20260505234450 | 42 | 320 | 0.0 | 0.0 | 0.00 | 0.00 | 0.00 | 73 | 1009.3 |
| 20260505233947 | 43 | 320 | 0.0 | 0.0 | 0.00 | 0.00 | 0.00 | 73 | 1009.1 |
| 20260505233444 | 43 | 320 | 0.0 | 0.0 | 0.00 | 0.00 | 0.00 | 73 | 1009.0 |
| 20260505232942 | 43 | 302 | 0.0 | 0.0 | 0.00 | 0.00 | 0.00 | 72 | 1008.9 |
| 20260505232440 | 43 | 327 | 0.0 | 0.0 | 0.00 | 0.00 | 0.00 | 71 | 1008.9 |
| 20260505231936 | 43 | 307 | 0.0 | 0.0 | 0.00 | 0.00 | 0.00 | 71 | 1009.1 |
| 20260505231434 | 44 | 297 | 0.0 | 0.0 | 0.00 | 0.00 | 0.00 | 71 | 1008.8 |
| 20260505230932 | 44 | 351 | 0.0 | 0.0 | 0.00 | 0.00 | 0.00 | 70 | 1008.9 |
| 20260505230429 | 44 | 329 | 0.0 | 0.0 | 0.00 | 0.00 | 0.00 | 69 | 1009.1 |
| 20260505225925 | 44 | 328 | 0.0 | 0.0 | 0.00 | 0.00 | 0.00 | 68 | 1008.9 |
| 20260505225422 | 44 | 332 | 0.0 | 0.0 | 0.00 | 0.00 | 0.00 | 67 | 1008.8 |
| 20260505224918 | 44 | 349 | 0.0 | 0.0 | 0.00 | 0.00 | 0.00 | 67 | 1009.0 |
| 20260505224416 | 44 | 355 | 0.0 | 0.0 | 0.00 | 0.00 | 0.00 | 66 | 1009.1 |
| 20260505223912 | 45 | 334 | 0.0 | 0.0 | 0.00 | 0.00 | 0.00 | 65 | 1009.0 |
| 20260505223409 | 45 | 339 | 0.0 | 0.0 | 0.00 | 0.00 | 0.00 | 64 | 1008.9 |
| 20260505222905 | 45 | 342 | 0.0 | 0.0 | 0.00 | 0.00 | 0.00 | 64 | 1009.0 |
| 20260505222402 | 45 | 321 | 0.0 | 0.0 | 0.00 | 0.00 | 0.00 | 63 | 1008.9 |
| 20260505221858 | 45 | 325 | 0.0 | 0.0 | 0.00 | 0.00 | 0.00 | 63 | 1009.1 |
| 20260505221355 | 45 | 283 | 0.0 | 0.0 | 0.00 | 0.00 | 0.00 | 62 | 1008.9 |
| 20260505220853 | 45 | 8 | 0.0 | 0.0 | 0.00 | 0.00 | 0.00 | 62 | 1008.8 |
| 20260505220349 | 46 | 335 | 0.0 | 0.0 | 0.00 | 0.00 | 0.00 | 61 | 1008.8 |
| 20260505215847 | 46 | 347 | 0.0 | 0.0 | 0.00 | 0.00 | 0.00 | 62 | 1008.9 |
| 20260505215345 | 46 | 357 | 0.0 | 0.0 | 0.00 | 0.00 | 0.00 | 63 | 1008.8 |
| 20260505214843 | 46 | 322 | 0.0 | 0.0 | 0.00 | 0.00 | 0.00 | 62 | 1008.7 |
| 20260505214340 | 46 | 317 | 0.0 | 0.0 | 0.00 | 0.00 | 0.00 | 62 | 1008.8 |
| 20260505213837 | 46 | 335 | 0.0 | 0.0 | 0.00 | 0.00 | 0.00 | 61 | 1008.8 |
| 20260505213335 | 47 | 328 | 0.0 | 0.0 | 0.00 | 0.00 | 0.00 | 61 | 1008.7 |
| 20260505212831 | 47 | 308 | 0.0 | 0.0 | 0.00 | 0.00 | 0.00 | 61 | 1008.6 |
| 20260505212328 | 47 | 327 | 0.0 | 0.0 | 0.00 | 0.00 | 0.00 | 62 | 1008.5 |
| 20260505211824 | 47 | 267 | 0.0 | 0.0 | 0.00 | 0.00 | 0.00 | 62 | 1008.5 |
| 20260505211322 | 47 | 253 | 1.0 | 1.0 | 0.00 | 0.00 | 0.00 | 62 | 1008.8 |
| 20260505210818 | 47 | 345 | 0.0 | 0.0 | 0.00 | 0.00 | 0.00 | 62 | 1008.5 |
| 20260505210315 | 48 | 350 | 0.0 | 0.0 | 0.00 | 0.00 | 0.00 | 61 | 1008.4 |
| 20260505205812 | 48 | 276 | 0.0 | 1.0 | 0.00 | 0.00 | 0.00 | 61 | 1008.6 |
| 20260505205310 | 48 | 312 | 0.0 | 0.0 | 0.00 | 0.00 | 0.00 | 60 | 1008.4 |
| 20260505204807 | 48 | 338 | 0.0 | 0.0 | 0.00 | 0.00 | 0.00 | 59 | 1008.5 |
| 20260505204305 | 48 | 3 | 0.0 | 1.0 | 0.00 | 0.00 | 0.00 | 58 | 1008.5 |
| 20260505203802 | 48 | 349 | 0.0 | 1.0 | 0.00 | 0.00 | 0.00 | 57 | 1008.5 |
| 20260505203258 | 48 | 326 | 0.0 | 0.0 | 0.00 | 0.00 | 0.00 | 57 | 1008.3 |
| 20260505202754 | 48 | 352 | 0.0 | 0.0 | 0.00 | 0.00 | 0.00 | 57 | 1008.1 |
| 20260505202251 | 48 | 320 | 0.0 | 0.0 | 0.00 | 0.00 | 0.00 | 58 | 1008.4 |
| 20260505201747 | 48 | 336 | 0.0 | 1.0 | 0.00 | 0.00 | 0.00 | 59 | 1008.2 |
| 20260505201245 | 48 | 348 | 0.0 | 0.0 | 0.00 | 0.00 | 0.00 | 59 | 1008.3 |
| 20260505200743 | 48 | 345 | 0.0 | 0.0 | 0.00 | 0.00 | 0.00 | 59 | 1008.2 |
| 20260505200240 | 48 | 348 | 0.0 | 1.0 | 0.00 | 0.00 | 0.00 | 60 | 1008.1 |
| 20260505195735 | 48 | 352 | 0.0 | 0.0 | 0.00 | 0.00 | 0.00 | 60 | 1008.0 |
| 20260505195233 | 48 | 342 | 0.0 | 0.0 | 0.00 | 0.00 | 0.00 | 61 | 1008.0 |
| 20260505194730 | 48 | 347 | 0.0 | 0.0 | 0.00 | 0.00 | 0.00 | 60 | 1008.0 |
| 20260505194226 | 48 | 338 | 0.0 | 0.0 | 0.00 | 0.00 | 0.00 | 60 | 1008.2 |
| 20260505193722 | 48 | 351 | 0.0 | 0.0 | 0.00 | 0.00 | 0.00 | 60 | 1007.9 |
| 20260505193220 | 48 | 310 | 0.0 | 0.0 | 0.00 | 0.00 | 0.00 | 60 | 1007.8 |
| 20260505192718 | 48 | 327 | 0.0 | 0.0 | 0.00 | 0.00 | 0.00 | 59 | 1007.9 |
| 20260505192216 | 48 | 318 | 0.0 | 0.0 | 0.00 | 0.00 | 0.00 | 59 | 1008.0 |
| 20260505191714 | 48 | 359 | 1.0 | 2.0 | 0.00 | 0.00 | 0.00 | 59 | 1008.1 |
| 20260505191212 | 48 | 20 | 1.0 | 1.0 | 0.00 | 0.00 | 0.00 | 60 | 1008.0 |
| 20260505190707 | 48 | 12 | 0.0 | 0.0 | 0.00 | 0.00 | 0.00 | 61 | 1007.8 |
| 20260505190202 | 48 | 337 | 0.0 | 0.0 | 0.00 | 0.00 | 0.00 | 61 | 1008.1 |
| 20260505185659 | 48 | 348 | 0.0 | 0.0 | 0.00 | 0.00 | 0.00 | 61 | 1007.9 |
| 20260505185155 | 47 | 335 | 0.0 | 0.0 | 0.00 | 0.00 | 0.00 | 61 | 1007.8 |
| 20260505184651 | 47 | 308 | 0.0 | 0.0 | 0.00 | 0.00 | 0.00 | 61 | 1007.9 |
| 20260505184149 | 47 | 355 | 0.0 | 0.0 | 0.00 | 0.00 | 0.00 | 61 | 1008.1 |
| 20260505183645 | 48 | 359 | 0.0 | 0.0 | 0.00 | 0.00 | 0.00 | 61 | 1007.6 |
| 20260505183143 | 48 | 351 | 0.0 | 1.0 | 0.00 | 0.00 | 0.00 | 62 | 1007.8 |
| 20260505182639 | 48 | 19 | 0.0 | 1.0 | 0.00 | 0.00 | 0.00 | 62 | 1007.7 |
| 20260505182136 | 48 | 354 | 0.0 | 1.0 | 0.00 | 0.00 | 0.00 | 62 | 1007.8 |
| 20260505181632 | 48 | 304 | 0.0 | 0.0 | 0.00 | 0.00 | 0.00 | 63 | 1007.7 |
| 20260505181130 | 48 | 284 | 0.0 | 0.0 | 0.00 | 0.00 | 0.00 | 63 | 1007.6 |
| 20260505180626 | 48 | 4 | 1.0 | 1.0 | 0.00 | 0.00 | 0.00 | 63 | 1007.6 |
| 20260505180124 | 48 | 0 | 0.0 | 0.0 | 0.00 | 0.00 | 0.00 | 63 | 1007.2 |
| 20260505175619 | 49 | 345 | 0.0 | 0.0 | 0.00 | 0.00 | 0.00 | 64 | 1007.5 |
| 20260505175116 | 48 | 338 | 0.0 | 0.0 | 0.00 | 0.00 | 0.00 | 63 | 1007.5 |
| 20260505174613 | 49 | 11 | 1.0 | 1.0 | 0.00 | 0.00 | 0.00 | 62 | 1007.3 |
| 20260505174109 | 49 | 328 | 0.0 | 0.0 | 0.00 | 0.00 | 0.00 | 61 | 1007.5 |
| 20260505173606 | 49 | 335 | 1.0 | 1.0 | 0.00 | 0.00 | 0.00 | 62 | 1007.4 |
| 20260505173102 | 49 | 351 | 1.0 | 1.0 | 0.00 | 0.00 | 0.00 | 64 | 1007.5 |
| 20260505172600 | 49 | 334 | 0.0 | 0.0 | 0.00 | 0.00 | 0.00 | 65 | 1007.5 |
| 20260505172056 | 49 | 322 | 0.0 | 0.0 | 0.00 | 0.00 | 0.00 | 66 | 1007.4 |
| 20260505171551 | 50 | 306 | 0.0 | 0.0 | 0.00 | 0.00 | 0.00 | 66 | 1007.5 |
| 20260505171049 | 50 | 307 | 0.0 | 0.0 | 0.00 | 0.00 | 0.00 | 68 | 1007.6 |
| 20260505170545 | 49 | 320 | 0.0 | 0.0 | 0.00 | 0.00 | 0.00 | 70 | 1007.6 |
| 20260505170042 | 50 | 9 | 0.0 | 0.0 | 0.00 | 0.00 | 0.00 | 69 | 1007.7 |
| 20260505165537 | 50 | 48 | 2.0 | 2.0 | 0.00 | 0.00 | 0.00 | 69 | 1007.6 |
| 20260505165033 | 50 | 42 | 0.0 | 1.0 | 0.00 | 0.00 | 0.00 | 68 | 1007.6 |
| 20260505164529 | 50 | 319 | 0.0 | 1.0 | 0.00 | 0.00 | 0.00 | 67 | 1007.7 |
| 20260505164027 | 50 | 356 | 0.0 | 0.0 | 0.00 | 0.00 | 0.00 | 66 | 1007.4 |
| 20260505163525 | 50 | 193 | 0.0 | 1.0 | 0.00 | 0.00 | 0.00 | 66 | 1007.6 |
| 20260505163021 | 51 | 314 | 1.0 | 1.0 | 0.00 | 0.00 | 0.00 | 66 | 1007.4 |
| 20260505162515 | 51 | 321 | 0.0 | 1.0 | 0.00 | 0.00 | 0.00 | 66 | 1007.3 |
| 20260505162012 | 51 | 116 | 1.0 | 1.0 | 0.00 | 0.00 | 0.00 | 65 | 1007.1 |
| 20260505161509 | 51 | 307 | 0.0 | 0.0 | 0.00 | 0.00 | 0.00 | 65 | 1007.1 |
| 20260505161006 | 51 | 12 | 0.0 | 1.0 | 0.00 | 0.00 | 0.00 | 65 | 1007.1 |
| 20260505160504 | 51 | 17 | 0.0 | 0.0 | 0.00 | 0.00 | 0.00 | 65 | 1006.6 |
| 20260505152940 | 53 | 315 | 0.0 | 0.0 | 0.00 | 0.00 | 0.00 | 62 | 1006.9 |
| 20260505152437 | 53 | 20 | 0.0 | 0.0 | 0.00 | 0.00 | 0.00 | 62 | 1006.8 |
| 20260505151937 | 53 | 343 | 0.0 | 0.0 | 0.00 | 0.00 | 0.00 | 63 | 1006.8 |
| 20260505151428 | 53 | 307 | 0.0 | 1.0 | 0.00 | 0.00 | 0.00 | 62 | 1006.7 |
| 20260505150925 | 53 | 26 | 0.0 | 1.0 | 0.00 | 0.00 | 0.00 | 63 | 1006.7 |
| 20260505150422 | 53 | 37 | 0.0 | 1.0 | 0.00 | 0.00 | 0.00 | 62 | 1006.6 |
| 20260505140352 | 57 | 17 | 1.0 | 5.0 | 0.00 | 0.00 | 0.00 | 58 | 1006.1 |
| 20260505124806 | 67 | 215 | 1.0 | 3.0 | 0.00 | 0.00 | 0.00 | 38 | 1005.6 |
| 20260505124302 | 68 | 329 | 0.0 | 0.0 | 0.00 | 0.00 | 0.00 | 37 | 1005.5 |
| 20260505123758 | 68 | 253 | 1.0 | 2.0 | 0.00 | 0.00 | 0.00 | 35 | 1005.4 |
| 20260505123255 | 69 | 326 | 2.0 | 3.0 | 0.00 | 0.00 | 0.00 | 35 | 1005.1 |
| 20260505122751 | 71 | 33 | 2.0 | 3.0 | 0.00 | 0.00 | 0.00 | 32 | 1005.0 |
| 20260505122249 | 70 | 230 | 3.0 | 5.0 | 0.00 | 0.00 | 0.00 | 32 | 1005.1 |
| 20260505121745 | 71 | 271 | 4.0 | 6.0 | 0.00 | 0.00 | 0.00 | 32 | 1005.2 |
| 20260505121242 | 70 | 269 | 1.0 | 1.0 | 0.00 | 0.00 | 0.00 | 33 | 1005.1 |
| 20260505120738 | 70 | 238 | 4.0 | 6.0 | 0.00 | 0.00 | 0.00 | 32 | 1005.3 |
| 20260505120234 | 70 | 278 | 3.0 | 5.0 | 0.00 | 0.00 | 0.00 | 32 | 1005.1 |
| 20260505115733 | 70 | 301 | 2.0 | 2.0 | 0.00 | 0.00 | 0.00 | 33 | 1005.2 |
| 20260505115231 | 71 | 258 | 6.0 | 8.0 | 0.00 | 0.00 | 0.00 | 32 | 1005.2 |
| 20260505114728 | 69 | 341 | 0.0 | 0.0 | 0.00 | 0.00 | 0.00 | 33 | 1004.9 |
| 20260505114224 | 69 | 198 | 4.0 | 6.0 | 0.00 | 0.00 | 0.00 | 32 | 1005.2 |
| 20260505113721 | 69 | 276 | 0.0 | 0.0 | 0.00 | 0.00 | 0.00 | 33 | 1005.0 |
| 20260505113217 | 68 | 166 | 0.0 | 1.0 | 0.00 | 0.00 | 0.00 | 34 | 1005.4 |
| 20260505112713 | 70 | 200 | 3.0 | 5.0 | 0.00 | 0.00 | 0.00 | 33 | 1005.2 |
| 20260505112211 | 71 | 203 | 4.0 | 6.0 | 0.00 | 0.00 | 0.00 | 32 | 1005.2 |
| 20260505111706 | 70 | 296 | 0.0 | 0.0 | 0.00 | 0.00 | 0.00 | 35 | 1005.3 |
| 20260505111202 | 69 | 273 | 0.0 | 0.0 | 0.00 | 0.00 | 0.00 | 35 | 1005.2 |
| 20260505110658 | 68 | 210 | 2.0 | 3.0 | 0.00 | 0.00 | 0.00 | 35 | 1005.2 |
| 20260505110155 | 68 | 233 | 5.0 | 8.0 | 0.00 | 0.00 | 0.00 | 35 | 1005.4 |
| 20260505102131 | 67 | 46 | 0.0 | 0.0 | 0.00 | 0.00 | 0.00 | 38 | 1005.4 |
| 20260505101630 | 68 | 302 | 3.0 | 5.0 | 0.00 | 0.00 | 0.00 | 38 | 1005.5 |
| 20260505101125 | 68 | 316 | 3.0 | 5.0 | 0.00 | 0.00 | 0.00 | 39 | 1005.5 |
| 20260505100622 | 68 | 286 | 1.0 | 2.0 | 0.00 | 0.00 | 0.00 | 39 | 1005.4 |
| 20260505100119 | 66 | 244 | 2.0 | 2.0 | 0.00 | 0.00 | 0.00 | 39 | 1005.4 |
| 20260505095615 | 66 | 262 | 3.0 | 3.0 | 0.00 | 0.00 | 0.00 | 39 | 1005.5 |
| 20260505095112 | 67 | 218 | 6.0 | 7.0 | 0.00 | 0.00 | 0.00 | 38 | 1005.7 |
| 20260505094608 | 65 | 240 | 3.0 | 6.0 | 0.00 | 0.00 | 0.00 | 41 | 1005.6 |
| 20260505094104 | 65 | 224 | 4.0 | 6.0 | 0.00 | 0.00 | 0.00 | 43 | 1005.5 |
| 20260505093601 | 65 | 232 | 3.0 | 5.0 | 0.00 | 0.00 | 0.00 | 45 | 1005.8 |